カタログに戻る

SCOUT X-4 DEB

運用中LEO
NORAD 3750·DEBRIS·🇺🇸 United States

打ち上げ Dec 19, 1963 から Vandenberg Space Force Base

Loading…

次のパス (今後24時間)

TLE

最新Source: Space-Track

元期: Sep 14, 2026, 17:49 UTC

1 03750U 63053J   26257.74255646  .00032985  00000-0  24705-2 0  9990
2 03750  78.5542 260.3517 0133502  98.8286 262.8065 14.95633462821921

AllMySatでSCOUT X-4 DEBをリアルタイム追跡

Download on the App Store